SILO ALERT LOG
| Silo ID | Alert Type | Alert Message | Silo Type | Points | Depth (mm) | Strength | Temperature (°C) | Humidity (%) | Height (mm) | Volume (㎥) | Weight (t) | Flag | Time |
|---|---|---|---|---|---|---|---|---|---|---|---|---|---|
| WJWJR01 | Humidity | 습도센서 측정값이 80% 초과 | 평 | 75 | 7740 | 1065 | 23.4 | 89.3 | -100 | -11.31 | 0 | 0 | 2026-08-17 05:26:04.000 |
| WJWJR05 | Humidity | 습도센서 측정값이 80% 초과 | 평 | 58 | 7900 | 2462 | 23.9 | 86 | -180 | -20.358 | 0 | 0 | 2026-08-17 05:25:48.000 |
| WJWJR01 | Humidity | 습도센서 측정값이 80% 초과 | 평 | 78 | 7770 | 1070 | 23.9 | 87.8 | -129 | -14.703 | 0 | 0 | 2026-08-17 01:25:59.000 |
| WJWJR05 | Humidity | 습도센서 측정값이 80% 초과 | 평 | 56 | 7970 | 2429 | 24.4 | 84.5 | -250 | -28.274 | 0 | 0 | 2026-08-17 01:25:42.000 |
| WJWJR01 | Humidity | 습도센서 측정값이 80% 초과 | 평 | 78 | 7730 | 1077 | 25.3 | 84 | -90 | -10.179 | 0 | 0 | 2026-08-16 21:26:01.000 |
| WJWJR05 | Humidity | 습도센서 측정값이 80% 초과 | 평 | 59 | 7870 | 2469 | 25.6 | 81.4 | -150 | -16.965 | 0 | 0 | 2026-08-16 21:25:42.000 |
| WJWJR01 | Humidity | 습도센서 측정값이 80% 초과 | 평 | 78 | 7740 | 1051 | 26.5 | 81.9 | -100 | -11.31 | 0 | 0 | 2026-08-16 17:26:02.000 |
| WJWJR05 | Humidity | 습도센서 측정값이 80% 초과 | 평 | 45 | 7970 | 2487 | 26.4 | 80.6 | -250 | -28.274 | 0 | 0 | 2026-08-16 17:25:46.000 |
| WJWJR01 | Humidity | 습도센서 측정값이 80% 초과 | 평 | 76 | 7770 | 1052 | 24.9 | 87.2 | -129 | -14.703 | 0 | 0 | 2026-08-16 13:26:03.000 |
| WJWJR05 | Humidity | 습도센서 측정값이 80% 초과 | 평 | 59 | 7910 | 2467 | 24.7 | 85.5 | -190 | -21.488 | 0 | 0 | 2026-08-16 13:25:44.000 |
| WJWJR01 | Humidity | 습도센서 측정값이 80% 초과 | 평 | 75 | 7740 | 1063 | 24 | 88.3 | -100 | -11.31 | 0 | 0 | 2026-08-16 09:26:09.000 |
| WJWJR05 | Humidity | 습도센서 측정값이 80% 초과 | 평 | 59 | 7880 | 2459 | 24.3 | 85.5 | -160 | -18.096 | 0 | 0 | 2026-08-16 09:25:43.000 |
| WJWJR01 | Humidity | 습도센서 측정값이 80% 초과 | 평 | 78 | 7730 | 1074 | 24.2 | 86.9 | -90 | -10.179 | 0 | 0 | 2026-08-16 05:26:09.000 |
| WJWJR05 | Humidity | 습도센서 측정값이 80% 초과 | 평 | 59 | 7880 | 2475 | 24.6 | 83.5 | -160 | -18.096 | 0 | 0 | 2026-08-16 05:25:57.000 |
| WJWJR01 | Humidity | 습도센서 측정값이 80% 초과 | 평 | 78 | 7730 | 1060 | 25 | 84.1 | -90 | -10.179 | 0 | 0 | 2026-08-16 01:26:01.000 |
| WJWJR05 | Humidity | 습도센서 측정값이 80% 초과 | 평 | 59 | 7910 | 2447 | 25.4 | 81.1 | -190 | -21.488 | 0 | 0 | 2026-08-16 01:25:41.000 |
| WJWJR01 | Humidity | 습도센서 측정값이 80% 초과 | 평 | 78 | 7760 | 1074 | 27.2 | 83.7 | -120 | -13.572 | 0 | 0 | 2026-08-15 13:26:01.000 |
| WJWJR05 | Humidity | 습도센서 측정값이 80% 초과 | 평 | 46 | 7980 | 2491 | 27.4 | 80.8 | -260 | -29.405 | 0 | 0 | 2026-08-15 13:25:46.000 |
| WJWJR01 | Humidity | 습도센서 측정값이 80% 초과 | 평 | 78 | 7740 | 1102 | 25.1 | 87.4 | -100 | -11.31 | 0 | 0 | 2026-08-15 09:26:02.000 |
| WJWJR05 | Humidity | 습도센서 측정값이 80% 초과 | 평 | 54 | 7920 | 2445 | 25.3 | 84.7 | -200 | -22.619 | 0 | 0 | 2026-08-15 09:25:45.000 |
[첫 페이지] [6] [7] [8] [9] 10 [11] [12] [13] [14] [마지막 페이지]